Location: Bydgoszcz
(53.1235°N, 18.0084°E)
Time: 17:43:29
(UTC+02:00)

ISS - Visible Passes

Search period start: 17 July 2018 00:00
Search period end: 27 July 2018 00:00
Orbit: 402 x 408 km, 51.6° (Epoch: 18 July)

Date Brightness Start Highest point End Pass type
(mag) Time Alt. Az. Time Alt. Az. Time Alt. Az.
17 Jul -2.2 00:08:34 20° ESE 00:08:34 20° ESE 00:10:05 10° E visible
17 Jul -3.9 01:41:11 18° WSW 01:43:26 61° S 01:46:43 10° E visible
17 Jul -3.8 03:16:33 10° W 03:19:49 60° S 03:23:05 10° ESE visible
17 Jul -1.4 23:17:37 11° ESE 23:17:37 11° ESE 23:17:43 10° E visible
18 Jul -3.7 00:50:12 31° SW 00:51:25 51° SSE 00:54:38 10° E visible
18 Jul -3.9 02:24:29 10° W 02:27:46 67° S 02:31:02 10° ESE visible
18 Jul -3.4 23:58:10 27° SSW 23:59:23 39° SSE 00:02:30 10° E visible
19 Jul -3.9 01:32:25 10° W 01:35:41 69° S 01:38:58 10° E visible
19 Jul -3.5 03:08:51 10° W 03:12:01 44° SSW 03:15:11 10° SE visible
19 Jul -3.0 23:04:31 10° SW 23:07:25 29° SSE 23:10:19 10° E visible
20 Jul -3.9 00:40:21 10° WSW 00:43:36 64° S 00:46:53 10° E visible
20 Jul -3.8 02:16:44 10° W 02:19:58 56° SSW 02:23:13 10° ESE visible
20 Jul -2.5 03:53:29 10° W 03:56:03 21° SSW 03:58:37 10° SSE visible
20 Jul -2.5 22:12:57 10° SSW 22:15:28 21° SSE 22:18:00 10° E visible
20 Jul -3.8 23:48:18 10° WSW 23:51:32 55° SSE 23:54:46 10° E visible
21 Jul -3.9 01:24:38 10° W 01:27:53 65° S 01:31:09 10° ESE visible
21 Jul -3.0 03:01:10 10° W 03:04:05 30° SSW 03:07:01 10° SE visible
21 Jul -3.5 22:56:20 10° SW 22:59:27 43° SSE 23:02:37 10° E visible
22 Jul -4.0 00:32:30 10° W 00:35:47 69° S 00:39:04 10° E visible
22 Jul -3.4 02:08:58 10° W 02:12:04 40° SSW 02:15:12 10° SE visible
22 Jul -1.9 03:46:29 10° WSW 03:47:56 12° SW 03:49:24 10° SSW visible
22 Jul -3.1 22:04:27 10° SW 22:07:26 32° SSE 22:10:25 10° E visible
22 Jul -3.9 23:40:24 10° WSW 23:43:40 67° S 23:46:56 10° E visible
23 Jul -3.8 01:16:48 10° W 01:20:01 52° SSW 01:20:44 41° SSE visible
23 Jul -3.8 22:48:17 10° WSW 22:51:32 59° S 22:54:48 10° E visible
24 Jul -3.9 00:24:38 10° W 00:27:54 62° S 00:29:01 36° ESE visible
24 Jul -1.4 02:01:14 10° W 02:01:36 12° W 02:01:36 12° W visible
24 Jul -3.6 21:56:14 10° WSW 21:59:25 48° SSE 22:02:37 10° E visible
24 Jul -3.9 23:32:29 10° W 23:35:45 68° S 23:38:00 19° ESE visible
25 Jul -2.3 01:08:58 10° W 01:10:36 24° WSW 01:10:36 24° WSW visible
25 Jul -3.9 22:40:20 10° W 22:43:36 68° S 22:46:53 10° E visible
26 Jul -3.6 00:16:45 10° W 00:19:48 47° SSW 00:19:48 47° SSW visible
26 Jul -3.8 21:48:11 10° WSW 21:51:26 62° S 21:54:42 10° E visible
26 Jul -3.8 23:24:33 10° W 23:27:48 59° S 23:29:05 32° SE visible
